Weather History for Enid, OK

Change the Weather History Date:

Wednesday, December 5, 2012

  Actual Average Record
Temperature  
Mean Temperature 47 °F -  
Max Temperature 64 °F 49 °F 73 °F (1998)
Min Temperature 30 °F 33 °F 15 °F (2005)
Degree Days  
Heating Degree Days 18    
Moisture  
Dew Point 26 °F    
Average Humidity 61    
Maximum Humidity 80    
Minimum Humidity 19    
Precipitation  
Precipitation 0.00 in - - ()
Sea Level Pressure  
Sea Level Pressure 30.17 in    
Wind  
Wind Speed 3 mph (SSE)    
Max Wind Speed 16 mph    
Max Gust Speed -    
Visibility 10 miles    
Events      
Averages and records for this station are not official NWS values.
T = Trace of Precipitation, MM = Missing Value Source: NWS Daily Summary

Daily Weather History Graph

Daily Weather History Graph

Search for Another Location

Airport:

Trip Planner

Search our weather history database for the weather conditions in past years. The results will help you decide how hot, cold, wet, or windy it might be!

Date:

Astronomy

Dec. 05, 2012 Rise Set
Actual Time 7:28 AM CST 5:15 PM CST
Civil Twilight 6:59 AM CST 5:44 PM CST
Nautical Twilight 6:27 AM CST 6:16 PM CST
Astronomical Twilight 5:56 AM CST 6:47 PM CST
Moon 11:58 PM CST (12/5) 12:00 PM CST (12/5)
Length of Visible Light 10h 44m
Length of Day
9h 47m
Waning Gibbous, 59% of the Moon is Illuminated
Dec 5
Waning Gibbous
Dec 6
Last Quarter
Dec 13
New
Dec 19
First Quarter
Dec 28
Full

Hourly Weather History & Observations

Time (CST) Temp. Windchill Dew Point Humidity Pressure Visibility Wind Dir Wind Speed Gust Speed Precip Events Conditions
12:15 AM 33.8 °F - 26.6 °F 75% 30.31 in 10.0 mi Calm Calm - N/A   Clear
12:35 AM 33.8 °F - 26.6 °F 75% 30.31 in 10.0 mi Calm Calm - N/A   Clear
12:55 AM 32.0 °F - 26.6 °F 80% 30.31 in 10.0 mi Calm Calm - N/A   Clear
1:15 AM 32.0 °F - 26.6 °F 80% 30.31 in 10.0 mi Calm Calm - N/A   Clear
1:35 AM 33.8 °F - 26.6 °F 75% 30.31 in 10.0 mi Calm Calm - N/A   Clear
1:55 AM 33.8 °F - 26.6 °F 75% 30.31 in 10.0 mi Calm Calm - N/A   Clear
2:15 AM 33.8 °F - 26.6 °F 75% 30.31 in 10.0 mi Calm Calm - N/A   Clear
2:35 AM 33.8 °F - 26.6 °F 75% 30.31 in 10.0 mi Calm Calm - N/A   Clear
2:55 AM 32.0 °F - 26.6 °F 80% 30.31 in 10.0 mi Calm Calm - N/A   Clear
3:15 AM 33.8 °F - 26.6 °F 75% 30.30 in 10.0 mi Calm Calm - N/A   Clear
3:35 AM 32.0 °F - 26.6 °F 80% 30.30 in 10.0 mi Calm Calm - N/A   Clear
3:55 AM 33.8 °F - 26.6 °F 75% 30.30 in 10.0 mi Calm Calm - N/A   Clear
4:15 AM 33.8 °F - 26.6 °F 75% 30.29 in 10.0 mi Calm Calm - N/A   Clear
4:35 AM 33.8 °F - 26.6 °F 75% 30.29 in 10.0 mi Calm Calm - N/A   Clear
4:55 AM 33.8 °F - 26.6 °F 75% 30.29 in 10.0 mi Calm Calm - N/A   Clear
6:20 AM 30.2 °F - 24.8 °F 80% 30.29 in 10.0 mi Calm Calm - N/A   Clear
6:50 AM 32.0 °F - 24.8 °F 75% 30.30 in 10.0 mi Calm Calm - N/A   Partly Cloudy
8:50 AM 42.8 °F - 32.0 °F 66% 30.29 in 10.0 mi Calm Calm - N/A   Scattered Clouds
9:50 AM 50.0 °F - 30.2 °F 47% 30.29 in 10.0 mi South 8.1 mph - N/A   Scattered Clouds
10:50 AM 57.2 °F - 30.2 °F 36% 30.27 in 10.0 mi SSE 11.5 mph - N/A   Mostly Cloudy
12:50 PM 60.8 °F - 24.8 °F 25% 30.19 in 10.0 mi South 13.8 mph - N/A   Mostly Cloudy
1:50 PM 62.6 °F - 21.2 °F 20% 30.14 in 10.0 mi South 16.1 mph - N/A   Overcast
2:50 PM 64.4 °F - 21.2 °F 19% 30.11 in 10.0 mi South 11.5 mph - N/A   Mostly Cloudy
2:55 PM 64.4 °F - 41.0 °F 42% 30.13 in 10.0 mi SE 6.9 mph - N/A   Clear
3:50 PM 62.6 °F - 23.0 °F 22% 30.08 in 10.0 mi SSE 11.5 mph - N/A   Mostly Cloudy
4:50 PM 57.2 °F - 24.8 °F 29% 30.07 in 10.0 mi SSE 6.9 mph - N/A   Mostly Cloudy
5:50 PM 50.0 °F - 24.8 °F 37% 30.06 in 10.0 mi SE 9.2 mph - N/A   Scattered Clouds
6:50 PM 42.8 °F 36.6 °F 23.0 °F 46% 30.04 in 10.0 mi SE 11.5 mph - N/A   Scattered Clouds
7:50 PM 41.0 °F 35.2 °F 23.0 °F 49% 30.04 in 10.0 mi SSE 9.2 mph - N/A   Scattered Clouds
8:15 PM 41.0 °F 37.1 °F 23.0 °F 49% 30.02 in 10.0 mi South 5.8 mph - N/A   Clear
8:35 PM 39.2 °F 35.9 °F 23.0 °F 52% 30.02 in 10.0 mi South 4.6 mph - N/A   Clear
8:50 PM 39.2 °F 35.0 °F 23.0 °F 52% 30.03 in 10.0 mi SSE 5.8 mph - N/A   Clear
8:55 PM 37.4 °F 33.8 °F 24.8 °F 60% 30.02 in 10.0 mi SE 4.6 mph - N/A   Clear
9:15 PM 41.0 °F 35.2 °F 26.6 °F 57% 30.00 in 10.0 mi SSE 9.2 mph - N/A   Clear
9:55 PM 37.4 °F 32.8 °F 26.6 °F 65% 29.99 in 10.0 mi SSE 5.8 mph - N/A   Clear
10:15 PM 37.4 °F 34.9 °F 26.6 °F 65% 29.99 in 10.0 mi South 3.5 mph - N/A   Clear
10:35 PM 39.2 °F 35.9 °F 28.4 °F 65% 29.99 in 10.0 mi South 4.6 mph - N/A   Clear
10:55 PM 37.4 °F - 28.4 °F 70% 29.99 in 10.0 mi Calm Calm - N/A   Clear
11:15 PM 37.4 °F 33.8 °F 26.6 °F 65% 29.97 in 10.0 mi SSE 4.6 mph - N/A   Clear
11:35 PM 35.6 °F 29.2 °F 28.4 °F 75% 29.96 in 10.0 mi SE 8.1 mph - N/A   Clear
11:55 PM 35.6 °F 28.6 °F 28.4 °F 75% 29.96 in 10.0 mi SE 9.2 mph - N/A   Clear